Regional Weather Roundup
Issued by NWS Burlington, VT

Home | Current Version | Previous Version | Text Only | Print | Product List | Glossary On
Versions: 1 2 3 4 5 6 7 8 9 10 11 12 13 14 15 16 17 18 19 20 21 22 23 24 25 26 27 28 29 30 31 32 33 34 35 36 37 38 39 40 41 42 43 44 45 46 47 48 49 50
507
ASUS41 KBTV 050510
RWRBTV
VERMONT REGIONAL WEATHER ROUNDUP
NATIONAL WEATHER SERVICE BURLINGTON VT
1200 AM EST MON DEC 05 2016

NOTE: "FAIR" INDICATES FEW OR NO CLOUDS BELOW 12,000 FEET WITH NO
SIGNIFICANT WEATHER AND/OR OBSTRUCTIONS TO VISIBILITY.

* THESE REPORTS ARE NOT UNDER NWS QUALITY CONTROL AND/OR DO NOT
  REPORT WEATHER SUCH AS PRECIPITATION AND FOG.

VTZ001>019-050600-
_____VERMONT_____


CITY           SKY/WX    TMP DP  RH WIND       PRES   REMARKS
BURLINGTON     CLEAR     26  19  74 SE6       30.13F WCI  19
MONTPELIER     CLEAR     16  14  92 CALM      30.13F
MORRISVILLE    CLOUDY    18  14  84 S5        30.13F WCI  11
ST. JOHNSBURY*   N/A     20  16  84 MISG      30.11F
LYNDONVILLE*   FAIR      15  14  94 CALM      30.11F
MIDDLEBURY*    FAIR      28  18  68 SE7       30.10F WCI  20
RUTLAND*       PTCLDY    21  18  88 SE10      30.10F WCI  10
SPRINGFIELD    CLOUDY    20  16  84 CALM      30.15F
HIGHGATE*      FAIR      22  20  91 E7        30.12F WCI  14
NEWPORT*       FAIR      16  14  93 CALM      30.10F
BENNINGTON     CLOUDY    24  19  81 CALM      30.09F
SUTTON*          N/A     14 N/A N/A MISG        N/A

_____LAKE CHAMPLAIN_____


CITY           SKY/WX    TMP DP  RH WIND       PRES   REMARKS
BURTON ISLAND*   N/A     32  27  80 E14         N/A  WCI  22
COLCHESTER RF*   N/A     32  27  80 SE14        N/A  WCI  22
DIAMOND ISL*     N/A     30  25  80 SE5         N/A  WCI  25

$$

NYZ007-026>031-035-052-083-087-050600-
_____NORTHERN NEW YORK_____


CITY           SKY/WX    TMP DP  RH WIND       PRES   REMARKS
PLATTSBURGH    PTCLDY    23  19  85 CALM      30.12F
SARANAC LAKE   CLOUDY    10   6  84 CALM      30.00F
MASSENA        PTCLDY    22  17  81 E3        30.10F
OGDENSBURG*    CLEAR     25  25 100 E5        30.06F WCI  19
POTSDAM*       CLEAR     23  21  93 E3        30.06F
WATERTOWN      CLOUDY    27  22  81 E7        30.00F WCI  19
FT DRUM        CLOUDY    26  20  78 SE9       29.99F WCI  17
ALBANY         CLOUDY    26  21  81 CALM      30.13F
GLENS FALLS    CLOUDY    24  19  81 CALM      30.13F

$$
NHZ002-005-011-050600-
_____NEW HAMPSHIRE_____


CITY           SKY/WX    TMP DP  RH WIND       PRES   REMARKS
LEBANON        CLOUDY    21  18  88 CALM      30.14F
KEENE          CLOUDY    21  19  92 CALM      30.14F
MT WASHINGTON  PTCLDY    21   0  39 SW12        N/A  WCI   9
PLYMOUTH         N/A     20  19  93 CALM      30.14F
WHITEFIELD     CLOUDY    16  10  77 CALM      30.09F

$$

_____REGIONAL QUEBEC LOCATIONS_____


CITY           SKY/WX    TMP DP  RH WIND       PRES   REMARKS
MONTREAL       PTCLDY    27  21  80 E5        30.13F WCI  21
QUEBEC CITY    CLEAR     14   9  79 NE6       30.15F WCI   5
SHERBROOKE     CLEAR     14  12  92 SE5       30.11S WCI   6

_____REGIONAL ONTARIO LOCATIONS_____


CITY           SKY/WX    TMP DP  RH WIND       PRES   REMARKS
OTTAWA         PTCLDY    23  21  93 E8        30.07F WCI  14

______KEY______
VSB  - VISIBILITY IN MILES
WCI  - WIND CHILL INDEX
HX   - HEAT INDEX
$$
NNNN




USA.gov is the U.S. government's official web portal to all federal, state and local government web resources and services.